Yukon, OK

6:48 AM CDT on October 01, 2016 (GMT -0500)
Oklahoma City / Page Muni

Weather History for KRCE - February, 2013

Change the Weather History Date:

Thursday, February 28, 2013

  Actual Average (KOKC) Record (KOKC)
Temperature  
Mean Temperature 35 °F 48 °F  
Max Temperature 44 °F 58 °F 90 °F (1904)
Min Temperature 26 °F 37 °F 7 °F (1962)
Degree Days  
Heating Degree Days 30 18  
Month to date heating degree days 597  
Since 1 July heating degree days 2750  
Moisture  
Dew Point 26 °F    
Average Humidity 74    
Maximum Humidity 93    
Minimum Humidity 49    
Precipitation  
Precipitation 0.00 in 0.07 in 0.98 in (1990)
Month to date precipitation 1.58  
Year to date precipitation 2.97  
Snow  
Snow 0.00 in 0.00 in 3.00 in (1927)
Month to date snowfall 1.4  
Since 1 July snowfall 6.7  
Snow Depth -    
Sea Level Pressure  
Sea Level Pressure 30.25 in    
Wind  
Wind Speed 10 mph (NNW)    
Max Wind Speed 21 mph    
Max Gust Speed 26 mph    
Visibility 10 miles    
Events      
T = Trace of Precipitation, MM = Missing Value Source: NWS Daily Summary

Daily Weather History Graph

Daily Weather History Graph

Search for Another Location

Airport or City:

Trip Planner

Search our weather history database for the weather conditions in past years. The results will help you decide how hot, cold, wet, or windy it might be!

Date:

Astronomy

Feb. 28, 2013 Rise Set
Actual Time 7:01 AM CST 6:26 PM CST
Civil Twilight 6:36 AM CST 6:51 PM CST
Nautical Twilight 6:06 AM CST 7:21 PM CST
Astronomical Twilight 5:37 AM CST 7:50 PM CST
Moon 9:45 PM CST (2/28) 8:20 AM CST (2/28)
Length of Visible Light 12h 15m
Length of Day
11h 24m
Waning Gibbous, 90% of the Moon is Illuminated
Feb 28
Waning Gibbous
Mar 4
Last Quarter
Mar 11
New
Mar 19
First Quarter
Mar 27
Full

Hourly Weather History & Observations

Time (CST) Temp. Windchill Dew Point Humidity Pressure Visibility Wind Dir Wind Speed Gust Speed Precip Events Conditions
12:15 AM 32.0 °F 23.6 °F 26.6 °F 80% 30.22 in 10.0 mi NNW 10.4 mph 16.1 mph N/A   Clear
12:35 AM 32.0 °F 23.0 °F 26.6 °F 80% 30.22 in 10.0 mi NNW 11.5 mph 17.3 mph N/A   Clear
12:55 AM 32.0 °F 23.6 °F 26.6 °F 80% 30.22 in 10.0 mi NNW 10.4 mph - N/A   Clear
1:15 AM 32.0 °F 24.2 °F 26.6 °F 80% 30.23 in 10.0 mi NNW 9.2 mph - N/A   Clear
1:35 AM 32.0 °F 23.6 °F 26.6 °F 80% 30.23 in 10.0 mi NNW 10.4 mph - N/A   Clear
1:55 AM 32.0 °F 23.6 °F 26.6 °F 80% 30.24 in 10.0 mi NW 10.4 mph - N/A   Clear
2:15 AM 32.0 °F 26.4 °F 26.6 °F 80% 30.25 in 10.0 mi NW 5.8 mph - N/A   Clear
2:35 AM 30.2 °F 21.9 °F 26.6 °F 86% 30.24 in 10.0 mi NW 9.2 mph - N/A   Clear
2:55 AM 32.0 °F 25.6 °F 26.6 °F 80% 30.23 in 10.0 mi NW 6.9 mph - N/A   Clear
3:15 AM 30.2 °F 22.6 °F 24.8 °F 80% 30.23 in 10.0 mi NW 8.1 mph - N/A   Clear
3:35 AM 28.4 °F 20.4 °F 24.8 °F 86% 30.23 in 10.0 mi NW 8.1 mph - N/A   Clear
3:55 AM 28.4 °F 21.2 °F 24.8 °F 86% 30.23 in 10.0 mi NW 6.9 mph - N/A   Clear
4:15 AM 28.4 °F 22.2 °F 24.8 °F 86% 30.23 in 10.0 mi NW 5.8 mph - N/A   Clear
4:55 AM 28.4 °F 22.2 °F 24.8 °F 86% 30.23 in 10.0 mi NW 5.8 mph - N/A   Clear
5:15 AM 26.6 °F 20.0 °F 24.8 °F 93% 30.24 in 10.0 mi WNW 5.8 mph - N/A   Clear
5:35 AM 26.6 °F 21.2 °F 24.8 °F 93% 30.24 in 10.0 mi WNW 4.6 mph - N/A   Clear
5:55 AM 26.6 °F 21.2 °F 24.8 °F 93% 30.25 in 10.0 mi WNW 4.6 mph - N/A   Clear
6:15 AM 26.6 °F 21.2 °F 24.8 °F 93% 30.25 in 10.0 mi West 4.6 mph - N/A   Clear
6:35 AM 26.6 °F 20.0 °F 24.8 °F 93% 30.25 in 10.0 mi WNW 5.8 mph - N/A   Clear
6:55 AM 26.6 °F 21.2 °F 23.0 °F 86% 30.25 in 10.0 mi NW 4.6 mph - N/A   Clear
7:15 AM 26.6 °F 20.0 °F 23.0 °F 86% 30.25 in 10.0 mi NW 5.8 mph - N/A   Clear
7:35 AM 26.6 °F - 24.8 °F 93% 30.26 in 10.0 mi North - - N/A   Clear
7:55 AM 28.4 °F - 24.8 °F 86% 30.26 in 10.0 mi North - - N/A   Clear
8:15 AM 32.0 °F - 26.6 °F 80% 30.27 in 10.0 mi North - - N/A   Clear
8:35 AM 32.0 °F 24.2 °F 26.6 °F 80% 30.27 in 10.0 mi NW 9.2 mph - N/A   Clear
8:55 AM 33.8 °F 25.3 °F 26.6 °F 75% 30.28 in 10.0 mi NW 11.5 mph 16.1 mph N/A   Clear
9:15 AM 35.6 °F 25.9 °F 26.6 °F 70% 30.28 in 10.0 mi NNW 16.1 mph 20.7 mph N/A   Clear
9:35 AM 35.6 °F 25.9 °F 26.6 °F 70% 30.28 in 10.0 mi NNW 16.1 mph 19.6 mph N/A   Clear
9:55 AM 37.4 °F 28.5 °F 26.6 °F 65% 30.28 in 10.0 mi NW 15.0 mph 19.6 mph N/A   Clear
10:15 AM 37.4 °F 27.8 °F 26.6 °F 65% 30.28 in 10.0 mi NNW 17.3 mph 21.9 mph N/A   Clear
10:35 AM 37.4 °F 28.2 °F 26.6 °F 65% 30.28 in 10.0 mi NNW 16.1 mph 25.3 mph N/A   Clear
11:15 AM 39.2 °F 30.2 °F 26.6 °F 61% 30.28 in 10.0 mi NNW 17.3 mph 21.9 mph N/A   Clear
11:35 AM 41.0 °F 31.6 °F 26.6 °F 57% 30.27 in 10.0 mi NW 20.7 mph 25.3 mph N/A   Clear
11:55 AM 41.0 °F 32.5 °F 26.6 °F 57% 30.27 in 10.0 mi NNW 17.3 mph 24.2 mph N/A   Clear
12:15 PM 41.0 °F 32.2 °F 28.4 °F 61% 30.27 in 10.0 mi NW 18.4 mph 21.9 mph N/A   Clear
12:35 PM 41.0 °F 32.8 °F 28.4 °F 61% 30.27 in 10.0 mi NNW 16.1 mph 21.9 mph N/A   Clear
12:55 PM 42.8 °F 35.1 °F 28.4 °F 57% 30.26 in 10.0 mi NNW 16.1 mph 25.3 mph N/A   Clear
1:15 PM 42.8 °F 34.5 °F 28.4 °F 57% 30.25 in 10.0 mi NW 18.4 mph 25.3 mph N/A   Clear
1:35 PM 44.6 °F 37.2 °F 28.4 °F 53% 30.24 in 10.0 mi NNW 17.3 mph 21.9 mph N/A   Clear
1:55 PM 44.6 °F 37.2 °F 28.4 °F 53% 30.24 in 10.0 mi NW 17.3 mph 21.9 mph N/A   Clear
2:15 PM 44.6 °F 36.9 °F 28.4 °F 53% 30.24 in 10.0 mi NW 18.4 mph 26.5 mph N/A   Clear
2:35 PM 44.6 °F 36.9 °F 28.4 °F 53% 30.24 in 10.0 mi NNW 18.4 mph 26.5 mph N/A   Clear
2:55 PM 44.6 °F 36.9 °F 28.4 °F 53% 30.24 in 10.0 mi NW 18.4 mph 24.2 mph N/A   Clear
3:35 PM 44.6 °F 37.8 °F 28.4 °F 53% 30.23 in 10.0 mi NNW 15.0 mph 23.0 mph N/A   Clear
3:55 PM 44.6 °F 37.8 °F 28.4 °F 53% 30.22 in 10.0 mi NNW 15.0 mph 20.7 mph N/A   Clear
4:15 PM 44.6 °F 38.4 °F 26.6 °F 49% 30.22 in 10.0 mi NNW 12.7 mph 21.9 mph N/A   Clear
4:55 PM 42.8 °F 35.4 °F 26.6 °F 53% 30.22 in 10.0 mi NNW 15.0 mph 21.9 mph N/A   Clear
5:15 PM 42.8 °F 35.8 °F 26.6 °F 53% 30.23 in 10.0 mi NNW 13.8 mph 20.7 mph N/A   Clear
5:35 PM 41.0 °F 33.5 °F 26.6 °F 57% 30.23 in 10.0 mi NNW 13.8 mph - N/A   Clear
5:55 PM 41.0 °F 33.9 °F 26.6 °F 57% 30.24 in 10.0 mi NW 12.7 mph - N/A   Clear
6:15 PM 39.2 °F 32.5 °F 26.6 °F 61% 30.24 in 10.0 mi NW 10.4 mph - N/A   Clear
6:35 PM 37.4 °F 30.3 °F 26.6 °F 65% 30.24 in 10.0 mi NW 10.4 mph - N/A   Clear
6:55 PM 35.6 °F 29.9 °F 26.6 °F 70% 30.24 in 10.0 mi NNW 6.9 mph - N/A   Clear
7:15 PM 35.6 °F 31.7 °F 26.6 °F 70% 30.24 in 10.0 mi NNW 4.6 mph - N/A   Clear
7:35 PM 35.6 °F 30.7 °F 26.6 °F 70% 30.24 in 10.0 mi NNW 5.8 mph - N/A   Clear
7:55 PM 32.0 °F 26.4 °F 26.6 °F 80% 30.24 in 10.0 mi North 5.8 mph - N/A   Clear
8:15 PM 32.0 °F 25.6 °F 26.6 °F 80% 30.24 in 10.0 mi North 6.9 mph - N/A   Clear
8:35 PM 32.0 °F 27.5 °F 26.6 °F 80% 30.24 in 10.0 mi North 4.6 mph - N/A   Clear
8:55 PM 32.0 °F 27.5 °F 26.6 °F 80% 30.25 in 10.0 mi North 4.6 mph - N/A   Clear
9:15 PM 32.0 °F 26.4 °F 26.6 °F 80% 30.25 in 10.0 mi NNE 5.8 mph - N/A   Clear
9:35 PM 30.2 °F 24.3 °F 26.6 °F 86% 30.25 in 10.0 mi NNE 5.8 mph - N/A   Clear
10:55 PM 28.4 °F 22.2 °F 26.6 °F 93% 30.25 in 10.0 mi North 5.8 mph - N/A   Clear
11:15 PM 28.4 °F 23.3 °F 26.6 °F 93% 30.26 in 10.0 mi NNW 4.6 mph - N/A   Clear
11:35 PM 28.4 °F 22.2 °F 26.6 °F 93% 30.25 in 10.0 mi North 5.8 mph - N/A   Clear
11:55 PM 26.6 °F 19.1 °F 24.8 °F 93% 30.24 in 10.0 mi NE 6.9 mph - N/A   Clear